Year,Month,Day,Hour,Minute,Value (Times are PST for temperature in C)
2019,09,30,00,00,7.60
2019,09,30,00,01,7.60
2019,09,30,00,02,7.70
2019,09,30,00,03,7.70
2019,09,30,00,04,7.70
2019,09,30,00,05,7.70
2019,09,30,00,06,7.80
2019,09,30,00,07,7.80
2019,09,30,00,08,7.80
2019,09,30,00,09,7.80
2019,09,30,00,10,7.80
2019,09,30,00,11,7.80
2019,09,30,00,12,7.80
2019,09,30,00,13,7.70
2019,09,30,00,14,7.70
2019,09,30,00,15,7.70
2019,09,30,00,16,7.70
2019,09,30,00,17,7.60
2019,09,30,00,18,7.60
2019,09,30,00,19,7.60
2019,09,30,00,20,7.50
2019,09,30,00,21,7.50
2019,09,30,00,22,7.40
2019,09,30,00,23,7.40
2019,09,30,00,24,7.40
2019,09,30,00,25,7.30
2019,09,30,00,26,7.30
2019,09,30,00,27,7.30
2019,09,30,00,28,7.20
2019,09,30,00,29,7.20
2019,09,30,00,30,7.20
2019,09,30,00,31,7.20
2019,09,30,00,32,7.20
2019,09,30,00,33,7.20
2019,09,30,00,34,7.20
2019,09,30,00,35,7.20
2019,09,30,00,36,7.20
2019,09,30,00,37,7.20
2019,09,30,00,38,7.20
2019,09,30,00,39,7.30
2019,09,30,00,40,7.30
2019,09,30,00,41,7.30
2019,09,30,00,42,7.40
2019,09,30,00,43,7.40
2019,09,30,00,44,7.40
2019,09,30,00,45,7.50
2019,09,30,00,46,7.60
2019,09,30,00,47,7.60
2019,09,30,00,48,7.60
2019,09,30,00,49,7.60
2019,09,30,00,50,7.60
2019,09,30,00,51,7.60
2019,09,30,00,52,7.60
2019,09,30,00,53,7.60
2019,09,30,00,54,7.60
2019,09,30,00,55,7.50
2019,09,30,00,56,7.50
2019,09,30,00,57,7.50
2019,09,30,00,58,7.40
2019,09,30,00,59,7.30
2019,09,30,01,00,7.30
2019,09,30,01,01,7.30
2019,09,30,01,02,7.20
2019,09,30,01,03,7.10
2019,09,30,01,04,7.10
2019,09,30,01,05,7.10
2019,09,30,01,06,7.10
2019,09,30,01,07,7.00
2019,09,30,01,08,7.00
2019,09,30,01,09,7.00
2019,09,30,01,10,7.00
2019,09,30,01,11,7.00
2019,09,30,01,12,7.00
2019,09,30,01,13,7.00
2019,09,30,01,14,7.00
2019,09,30,01,15,7.10
2019,09,30,01,16,7.10
2019,09,30,01,17,7.20
2019,09,30,01,18,7.20
2019,09,30,01,19,7.20
2019,09,30,01,20,7.20
2019,09,30,01,21,7.20
2019,09,30,01,22,7.20
2019,09,30,01,23,7.20
2019,09,30,01,24,7.20
2019,09,30,01,25,7.20
2019,09,30,01,26,7.20
2019,09,30,01,27,7.20
2019,09,30,01,28,7.20
2019,09,30,01,29,7.20
2019,09,30,01,30,7.20
2019,09,30,01,31,7.20
2019,09,30,01,32,7.10
2019,09,30,01,33,7.10
2019,09,30,01,34,7.10
2019,09,30,01,35,7.00
2019,09,30,01,36,7.00
2019,09,30,01,37,6.90
2019,09,30,01,38,6.90
2019,09,30,01,39,6.90
2019,09,30,01,40,6.80
2019,09,30,01,41,6.80
2019,09,30,01,42,6.80
2019,09,30,01,43,6.80
2019,09,30,01,44,6.80
2019,09,30,01,45,6.80
2019,09,30,01,46,6.80
2019,09,30,01,47,6.80
2019,09,30,01,48,6.80
2019,09,30,01,49,6.70
2019,09,30,01,50,6.70
2019,09,30,01,51,6.70
2019,09,30,01,52,6.60
2019,09,30,01,53,6.60
2019,09,30,01,54,6.60
2019,09,30,01,55,6.50
2019,09,30,01,56,6.50
2019,09,30,01,57,6.50
2019,09,30,01,58,6.50
2019,09,30,01,59,6.50
2019,09,30,02,00,6.40
2019,09,30,02,01,6.40
2019,09,30,02,02,6.40
2019,09,30,02,03,6.40
2019,09,30,02,04,6.40
2019,09,30,02,05,6.40
2019,09,30,02,06,6.40
2019,09,30,02,07,6.40
2019,09,30,02,08,6.40
2019,09,30,02,09,6.40
2019,09,30,02,10,6.40
2019,09,30,02,11,6.40
2019,09,30,02,12,6.40
2019,09,30,02,13,6.50
2019,09,30,02,14,6.50
2019,09,30,02,15,6.50
2019,09,30,02,16,6.50
2019,09,30,02,17,6.60
2019,09,30,02,18,6.60
2019,09,30,02,19,6.60
2019,09,30,02,20,6.70
2019,09,30,02,21,6.70
2019,09,30,02,22,6.70
2019,09,30,02,23,6.70
2019,09,30,02,24,6.70
2019,09,30,02,25,6.60
2019,09,30,02,26,6.60
2019,09,30,02,27,6.60
2019,09,30,02,28,6.50
2019,09,30,02,29,6.50
2019,09,30,02,30,6.50
2019,09,30,02,31,6.40
2019,09,30,02,32,6.40
2019,09,30,02,33,6.30
2019,09,30,02,34,6.40
2019,09,30,02,35,6.40
2019,09,30,02,36,6.40
2019,09,30,02,37,6.30
2019,09,30,02,38,6.30
2019,09,30,02,39,6.30
2019,09,30,02,40,6.30
2019,09,30,02,41,6.30
2019,09,30,02,42,6.30
2019,09,30,02,43,6.30
2019,09,30,02,44,6.30
2019,09,30,02,45,6.30
2019,09,30,02,46,6.30
2019,09,30,02,47,6.30
2019,09,30,02,48,6.30
2019,09,30,02,49,6.30
2019,09,30,02,50,6.30
2019,09,30,02,51,6.30
2019,09,30,02,52,6.30
2019,09,30,02,53,6.30
2019,09,30,02,54,6.30
2019,09,30,02,55,6.30
2019,09,30,02,56,6.20
2019,09,30,02,57,6.20
2019,09,30,02,58,6.20
2019,09,30,02,59,6.20
2019,09,30,03,00,6.20
2019,09,30,03,01,6.10
2019,09,30,03,02,6.10
2019,09,30,03,03,6.10
2019,09,30,03,04,6.00
2019,09,30,03,05,6.00
2019,09,30,03,06,5.90
2019,09,30,03,07,5.90
2019,09,30,03,08,5.90
2019,09,30,03,09,5.80
2019,09,30,03,10,5.80
2019,09,30,03,11,5.80
2019,09,30,03,12,5.80
2019,09,30,03,13,5.80
2019,09,30,03,14,5.80
2019,09,30,03,15,5.80
2019,09,30,03,16,5.80
2019,09,30,03,17,5.90
2019,09,30,03,18,5.90
2019,09,30,03,19,5.90
2019,09,30,03,20,5.90
2019,09,30,03,21,5.90
2019,09,30,03,22,5.90
2019,09,30,03,23,5.90
2019,09,30,03,24,5.90
2019,09,30,03,25,5.80
2019,09,30,03,26,5.80
2019,09,30,03,27,5.80
2019,09,30,03,28,5.70
2019,09,30,03,29,5.70
2019,09,30,03,30,5.70
2019,09,30,03,31,5.70
2019,09,30,03,32,5.70
2019,09,30,03,33,5.60
2019,09,30,03,34,5.60
2019,09,30,03,35,5.60
2019,09,30,03,36,5.60
2019,09,30,03,37,5.60
2019,09,30,03,38,5.60
2019,09,30,03,39,5.60
2019,09,30,03,40,5.60
2019,09,30,03,41,5.60
2019,09,30,03,42,5.60
2019,09,30,03,43,5.50
2019,09,30,03,44,5.50
2019,09,30,03,45,5.40
2019,09,30,03,46,5.40
2019,09,30,03,47,5.30
2019,09,30,03,48,5.30
2019,09,30,03,49,5.30
2019,09,30,03,50,5.30
2019,09,30,03,51,5.30
2019,09,30,03,52,5.30
2019,09,30,03,53,5.30
2019,09,30,03,54,5.30
2019,09,30,03,55,5.30
2019,09,30,03,56,5.30
2019,09,30,03,57,5.40
2019,09,30,03,58,5.40
2019,09,30,03,59,5.40
2019,09,30,04,00,5.40
2019,09,30,04,01,5.40
2019,09,30,04,02,5.40
2019,09,30,04,03,5.40
2019,09,30,04,04,5.40
2019,09,30,04,05,5.30
2019,09,30,04,06,5.30
2019,09,30,04,07,5.30
2019,09,30,04,08,5.30
2019,09,30,04,09,5.30
2019,09,30,04,10,5.20
2019,09,30,04,11,5.20
2019,09,30,04,12,5.20
2019,09,30,04,13,5.10
2019,09,30,04,14,5.10
2019,09,30,04,15,5.10
2019,09,30,04,16,5.00
2019,09,30,04,17,5.00
2019,09,30,04,18,5.00
2019,09,30,04,19,4.90
2019,09,30,04,20,4.90
2019,09,30,04,21,4.80
2019,09,30,04,22,4.80
2019,09,30,04,23,4.80
2019,09,30,04,24,4.70
2019,09,30,04,25,4.70
2019,09,30,04,26,4.70
2019,09,30,04,27,4.60
2019,09,30,04,28,4.60
2019,09,30,04,29,4.60
2019,09,30,04,30,4.50
2019,09,30,04,31,4.50
2019,09,30,04,32,4.40
2019,09,30,04,33,4.40
2019,09,30,04,34,4.40
2019,09,30,04,35,4.40
2019,09,30,04,36,4.40
2019,09,30,04,37,4.40
2019,09,30,04,38,4.30
2019,09,30,04,39,4.30
2019,09,30,04,40,4.30
2019,09,30,04,41,4.30
2019,09,30,04,42,4.30
2019,09,30,04,43,4.20
2019,09,30,04,44,4.20
2019,09,30,04,45,4.10
2019,09,30,04,46,4.10
2019,09,30,04,47,4.10
2019,09,30,04,48,4.00
2019,09,30,04,49,4.00
2019,09,30,04,50,4.00
2019,09,30,04,51,4.00
2019,09,30,04,52,3.90
2019,09,30,04,53,3.90
2019,09,30,04,54,3.90
2019,09,30,04,55,3.90
2019,09,30,04,56,3.90
2019,09,30,04,57,4.00
2019,09,30,04,58,4.00
2019,09,30,04,59,4.00
2019,09,30,05,00,3.90
2019,09,30,05,01,3.90
2019,09,30,05,02,3.90
2019,09,30,05,03,3.90
2019,09,30,05,04,3.90
2019,09,30,05,05,3.90
2019,09,30,05,06,4.00
2019,09,30,05,07,4.00
2019,09,30,05,08,4.10
2019,09,30,05,09,4.20
2019,09,30,05,10,4.30
2019,09,30,05,11,4.40
2019,09,30,05,12,4.40
2019,09,30,05,13,4.50
2019,09,30,05,14,4.60
2019,09,30,05,15,4.60
2019,09,30,05,16,4.60
2019,09,30,05,17,4.60
2019,09,30,05,18,4.60
2019,09,30,05,19,4.60
2019,09,30,05,20,4.60
2019,09,30,05,21,4.60
2019,09,30,05,22,4.60
2019,09,30,05,23,4.50
2019,09,30,05,24,4.60
2019,09,30,05,25,4.60
2019,09,30,05,26,4.60
2019,09,30,05,27,4.70
2019,09,30,05,28,4.70
2019,09,30,05,29,4.70
2019,09,30,05,30,4.70
2019,09,30,05,31,4.60
2019,09,30,05,32,4.60
2019,09,30,05,33,4.60
2019,09,30,05,34,4.60
2019,09,30,05,35,4.70
2019,09,30,05,36,4.70
2019,09,30,05,37,4.80
2019,09,30,05,38,4.80
2019,09,30,05,39,4.90
2019,09,30,05,40,4.90
2019,09,30,05,41,4.90
2019,09,30,05,42,4.90
2019,09,30,05,43,4.90
2019,09,30,05,44,4.90
2019,09,30,05,45,4.90
2019,09,30,05,46,4.90
2019,09,30,05,47,4.90
2019,09,30,05,48,4.90
2019,09,30,05,49,4.90
2019,09,30,05,50,4.90
2019,09,30,05,51,4.90
2019,09,30,05,52,4.90
2019,09,30,05,53,4.90
2019,09,30,05,54,4.90
2019,09,30,05,55,4.90
2019,09,30,05,56,4.90
2019,09,30,05,57,4.90
2019,09,30,05,58,4.90
2019,09,30,05,59,4.90
2019,09,30,06,00,4.90
2019,09,30,06,01,4.90
2019,09,30,06,02,4.90
2019,09,30,06,03,4.80
2019,09,30,06,04,4.80
2019,09,30,06,05,4.80
2019,09,30,06,06,4.80
2019,09,30,06,07,4.80
2019,09,30,06,08,4.80
2019,09,30,06,09,4.80
2019,09,30,06,10,4.80
2019,09,30,06,11,4.80
2019,09,30,06,12,4.80
2019,09,30,06,13,4.80
2019,09,30,06,14,4.80
2019,09,30,06,15,4.80
2019,09,30,06,16,4.70
2019,09,30,06,17,4.70
2019,09,30,06,18,4.70
2019,09,30,06,19,4.70
2019,09,30,06,20,4.70
2019,09,30,06,21,4.60
2019,09,30,06,22,4.60
2019,09,30,06,23,4.60
2019,09,30,06,24,4.60
2019,09,30,06,25,4.70
2019,09,30,06,26,4.70
2019,09,30,06,27,4.80
2019,09,30,06,28,4.80
2019,09,30,06,29,4.90
2019,09,30,06,30,4.90
2019,09,30,06,31,4.90
2019,09,30,06,32,5.00
2019,09,30,06,33,5.00
2019,09,30,06,34,5.00
2019,09,30,06,35,5.00
2019,09,30,06,36,5.00
2019,09,30,06,37,5.00
2019,09,30,06,38,5.00
2019,09,30,06,39,4.90
2019,09,30,06,40,4.90
2019,09,30,06,41,4.80
2019,09,30,06,42,4.80
2019,09,30,06,43,4.80
2019,09,30,06,44,4.70
2019,09,30,06,45,4.60
2019,09,30,06,46,4.60
2019,09,30,06,47,4.50
2019,09,30,06,48,4.50
2019,09,30,06,49,4.40
2019,09,30,06,50,4.40
2019,09,30,06,51,4.30
2019,09,30,06,52,4.30
2019,09,30,06,53,4.20
2019,09,30,06,54,4.10
2019,09,30,06,55,4.10
2019,09,30,06,56,4.00
2019,09,30,06,57,3.90
2019,09,30,06,58,3.90
2019,09,30,06,59,3.80
2019,09,30,07,00,3.80
2019,09,30,07,01,3.80
2019,09,30,07,02,3.80
2019,09,30,07,03,3.80
2019,09,30,07,04,3.90
2019,09,30,07,05,3.90
2019,09,30,07,06,4.00
2019,09,30,07,07,4.00
2019,09,30,07,08,4.00
2019,09,30,07,09,4.10
2019,09,30,07,10,4.10
2019,09,30,07,11,4.20
2019,09,30,07,12,4.20
2019,09,30,07,13,4.20
2019,09,30,07,14,4.20
2019,09,30,07,15,4.20
2019,09,30,07,16,4.20
2019,09,30,07,17,4.20
2019,09,30,07,18,4.20
2019,09,30,07,19,4.20
2019,09,30,07,20,4.20
2019,09,30,07,21,4.10
2019,09,30,07,22,4.10
2019,09,30,07,23,4.10
2019,09,30,07,24,4.10
2019,09,30,07,25,4.10
2019,09,30,07,26,4.10
2019,09,30,07,27,4.10
2019,09,30,07,28,4.00
2019,09,30,07,29,4.00
2019,09,30,07,30,4.00
2019,09,30,07,31,4.00
2019,09,30,07,32,4.00
2019,09,30,07,33,4.00
2019,09,30,07,34,4.00
2019,09,30,07,35,4.10
2019,09,30,07,36,4.00
2019,09,30,07,37,4.10
2019,09,30,07,38,4.10
2019,09,30,07,39,4.20
2019,09,30,07,40,4.20
2019,09,30,07,41,4.20
2019,09,30,07,42,4.30
2019,09,30,07,43,4.40
2019,09,30,07,44,4.40
2019,09,30,07,45,4.50
2019,09,30,07,46,4.50
2019,09,30,07,47,4.40
2019,09,30,07,48,4.40
2019,09,30,07,49,4.30
2019,09,30,07,50,4.20
2019,09,30,07,51,4.20
2019,09,30,07,52,4.10
2019,09,30,07,53,4.10
2019,09,30,07,54,4.10
2019,09,30,07,55,4.10
2019,09,30,07,56,4.10
2019,09,30,07,57,4.20
2019,09,30,07,58,4.20
2019,09,30,07,59,4.30
2019,09,30,08,00,4.30
2019,09,30,08,01,4.40
2019,09,30,08,02,4.40
2019,09,30,08,03,4.40
2019,09,30,08,04,4.40
2019,09,30,08,05,4.50
2019,09,30,08,06,4.50
2019,09,30,08,07,4.50
2019,09,30,08,08,4.50
2019,09,30,08,09,4.50
2019,09,30,08,10,4.50
2019,09,30,08,11,4.40
2019,09,30,08,12,4.40
2019,09,30,08,13,4.50
2019,09,30,08,14,4.50
2019,09,30,08,15,4.50
2019,09,30,08,16,4.50
2019,09,30,08,17,4.50
2019,09,30,08,18,4.60
2019,09,30,08,19,4.60
2019,09,30,08,20,4.70
2019,09,30,08,21,4.80
2019,09,30,08,22,4.90
2019,09,30,08,23,5.00
2019,09,30,08,24,5.10
2019,09,30,08,25,5.20
2019,09,30,08,26,5.30
2019,09,30,08,27,5.50
2019,09,30,08,28,5.60
2019,09,30,08,29,5.80
2019,09,30,08,30,5.90
2019,09,30,08,31,6.10
2019,09,30,08,32,6.20
2019,09,30,08,33,6.30
2019,09,30,08,34,6.30
2019,09,30,08,35,6.40
2019,09,30,08,36,6.50
2019,09,30,08,37,6.50
2019,09,30,08,38,6.60
2019,09,30,08,39,6.60
2019,09,30,08,40,6.60
2019,09,30,08,41,6.70
2019,09,30,08,42,6.70
2019,09,30,08,43,6.70
2019,09,30,08,44,6.80
2019,09,30,08,45,6.80
2019,09,30,08,46,6.80
2019,09,30,08,47,6.90
2019,09,30,08,48,6.90
2019,09,30,08,49,7.00
2019,09,30,08,50,7.00
2019,09,30,08,51,7.10
2019,09,30,08,52,7.10
2019,09,30,08,53,7.20
2019,09,30,08,54,7.20
2019,09,30,08,55,7.30
2019,09,30,08,56,7.40
2019,09,30,08,57,7.50
2019,09,30,08,58,7.50
2019,09,30,08,59,7.60
2019,09,30,09,00,7.70
2019,09,30,09,01,7.80
2019,09,30,09,02,7.80
2019,09,30,09,03,7.90
2019,09,30,09,04,7.90
2019,09,30,09,05,8.00
2019,09,30,09,06,8.10
2019,09,30,09,07,8.10
2019,09,30,09,08,8.20
2019,09,30,09,09,8.30
2019,09,30,09,10,8.40
2019,09,30,09,11,8.40
2019,09,30,09,12,8.50
2019,09,30,09,13,8.50
2019,09,30,09,14,8.60
2019,09,30,09,15,8.60
2019,09,30,09,16,8.70
2019,09,30,09,17,8.80
2019,09,30,09,18,8.80
2019,09,30,09,19,8.80
2019,09,30,09,20,8.90
2019,09,30,09,21,8.90
2019,09,30,09,22,9.00
2019,09,30,09,23,9.10
2019,09,30,09,24,9.10
2019,09,30,09,25,9.20
2019,09,30,09,26,9.20
2019,09,30,09,27,9.30
2019,09,30,09,28,9.30
2019,09,30,09,29,9.40
2019,09,30,09,30,9.40
2019,09,30,09,31,9.50
2019,09,30,09,32,9.50
2019,09,30,09,33,9.60
2019,09,30,09,34,9.70
2019,09,30,09,35,9.70
2019,09,30,09,36,9.80
2019,09,30,09,37,9.80
2019,09,30,09,38,9.80
2019,09,30,09,39,9.80
2019,09,30,09,40,9.80
2019,09,30,09,41,9.80
2019,09,30,09,42,9.80
2019,09,30,09,43,9.90
2019,09,30,09,44,9.90
2019,09,30,09,45,9.90
2019,09,30,09,46,9.90
2019,09,30,09,47,9.90
2019,09,30,09,48,9.80
2019,09,30,09,49,9.80
2019,09,30,09,50,9.80
2019,09,30,09,51,9.80
2019,09,30,09,52,9.80
2019,09,30,09,53,9.80
2019,09,30,09,54,9.80
2019,09,30,09,55,9.80
2019,09,30,09,56,9.80
2019,09,30,09,57,9.70
2019,09,30,09,58,9.70
2019,09,30,09,59,9.60
2019,09,30,10,00,9.60
2019,09,30,10,01,9.60
2019,09,30,10,02,9.60
2019,09,30,10,03,9.60
2019,09,30,10,04,9.60
2019,09,30,10,05,9.60
2019,09,30,10,06,9.70
2019,09,30,10,07,9.70
2019,09,30,10,08,9.80
2019,09,30,10,09,9.80
2019,09,30,10,10,9.80
2019,09,30,10,11,9.90
2019,09,30,10,12,9.90
2019,09,30,10,13,9.90
2019,09,30,10,14,9.90
2019,09,30,10,15,9.90
2019,09,30,10,16,10.00
2019,09,30,10,17,9.90
2019,09,30,10,18,9.90
2019,09,30,10,19,9.80
2019,09,30,10,20,9.80
2019,09,30,10,21,9.80
2019,09,30,10,22,9.90
2019,09,30,10,23,9.90
2019,09,30,10,24,10.00
2019,09,30,10,25,10.00
2019,09,30,10,26,10.10
2019,09,30,10,27,10.10
2019,09,30,10,28,10.10
2019,09,30,10,29,10.20
2019,09,30,10,30,10.20
2019,09,30,10,31,10.20
2019,09,30,10,32,10.20
2019,09,30,10,33,10.20
2019,09,30,10,34,10.20
2019,09,30,10,35,10.30
2019,09,30,10,36,10.30
2019,09,30,10,37,10.20
2019,09,30,10,38,10.20
2019,09,30,10,39,10.20
2019,09,30,10,40,10.20
2019,09,30,10,41,10.30
2019,09,30,10,42,10.30
2019,09,30,10,43,10.30
2019,09,30,10,44,10.30
2019,09,30,10,45,10.30
2019,09,30,10,46,10.40
2019,09,30,10,47,10.40
2019,09,30,10,48,10.50
2019,09,30,10,49,10.50
2019,09,30,10,50,10.50
2019,09,30,10,51,10.50
2019,09,30,10,52,10.50
2019,09,30,10,53,10.60
2019,09,30,10,54,10.60
2019,09,30,10,55,10.60
2019,09,30,10,56,10.70
2019,09,30,10,57,10.70
2019,09,30,10,58,10.70
2019,09,30,10,59,10.70
2019,09,30,11,00,10.70
2019,09,30,11,01,10.70
2019,09,30,11,02,10.80
2019,09,30,11,03,10.80
2019,09,30,11,04,10.80
2019,09,30,11,05,10.90
2019,09,30,11,06,10.90
2019,09,30,11,07,10.90
2019,09,30,11,08,10.90
2019,09,30,11,09,11.00
2019,09,30,11,10,11.00
2019,09,30,11,11,11.10
2019,09,30,11,12,11.10
2019,09,30,11,13,11.10
2019,09,30,11,14,11.10
2019,09,30,11,15,11.10
2019,09,30,11,16,11.10
2019,09,30,11,17,11.10
2019,09,30,11,18,11.10
2019,09,30,11,19,11.10
2019,09,30,11,20,11.20
2019,09,30,11,21,11.20
2019,09,30,11,22,11.20
2019,09,30,11,23,11.30
2019,09,30,11,24,11.40
2019,09,30,11,25,11.40
2019,09,30,11,26,11.50
2019,09,30,11,27,11.50
2019,09,30,11,28,11.60
2019,09,30,11,29,11.70
2019,09,30,11,30,11.70
2019,09,30,11,31,11.80
2019,09,30,11,32,11.80
2019,09,30,11,33,11.90
2019,09,30,11,34,11.90
2019,09,30,11,35,11.90
2019,09,30,11,36,11.90
2019,09,30,11,37,11.80
2019,09,30,11,38,11.80
2019,09,30,11,39,11.90
2019,09,30,11,40,11.90
2019,09,30,11,41,11.90
2019,09,30,11,42,11.90
2019,09,30,11,43,11.80
2019,09,30,11,44,11.90
2019,09,30,11,45,11.90
2019,09,30,11,46,11.90
2019,09,30,11,47,11.90
2019,09,30,11,48,12.00
2019,09,30,11,49,12.00
2019,09,30,11,50,12.00
2019,09,30,11,51,12.10
2019,09,30,11,52,12.10
2019,09,30,11,53,12.10
2019,09,30,11,54,12.20
2019,09,30,11,55,12.20
2019,09,30,11,56,12.20
2019,09,30,11,57,12.20
2019,09,30,11,58,12.20
2019,09,30,11,59,12.20
2019,09,30,12,00,12.30
2019,09,30,12,01,12.30
2019,09,30,12,02,12.40
2019,09,30,12,03,12.40
2019,09,30,12,04,12.50
2019,09,30,12,05,12.50
2019,09,30,12,06,12.50
2019,09,30,12,07,12.50
2019,09,30,12,08,12.60
2019,09,30,12,09,12.60
2019,09,30,12,10,12.60
2019,09,30,12,11,12.60
2019,09,30,12,12,12.60
2019,09,30,12,13,12.60
2019,09,30,12,14,12.60
2019,09,30,12,15,12.60
2019,09,30,12,16,12.60
2019,09,30,12,17,12.60
2019,09,30,12,18,12.60
2019,09,30,12,19,12.70
2019,09,30,12,20,12.80
2019,09,30,12,21,12.90
2019,09,30,12,22,12.90
2019,09,30,12,23,12.90
2019,09,30,12,24,12.90
2019,09,30,12,25,12.90
2019,09,30,12,26,13.00
2019,09,30,12,27,13.00
2019,09,30,12,28,13.00
2019,09,30,12,29,13.00
2019,09,30,12,30,13.10
2019,09,30,12,31,13.10
2019,09,30,12,32,13.20
2019,09,30,12,33,13.20
2019,09,30,12,34,13.20
2019,09,30,12,35,13.30
2019,09,30,12,36,13.30
2019,09,30,12,37,13.40
2019,09,30,12,38,13.40
2019,09,30,12,39,13.50
2019,09,30,12,40,13.60
2019,09,30,12,41,13.60
2019,09,30,12,42,13.60
2019,09,30,12,43,13.60
2019,09,30,12,44,13.60
2019,09,30,12,45,13.70
2019,09,30,12,46,13.70
2019,09,30,12,47,13.80
2019,09,30,12,48,13.80
2019,09,30,12,49,13.90
2019,09,30,12,50,13.90
2019,09,30,12,51,14.00
2019,09,30,12,52,14.10
2019,09,30,12,53,14.10
2019,09,30,12,54,14.20
2019,09,30,12,55,14.20
2019,09,30,12,56,14.20
2019,09,30,12,57,14.20
2019,09,30,12,58,14.10
2019,09,30,12,59,14.10
2019,09,30,13,00,14.00
2019,09,30,13,01,13.90
2019,09,30,13,02,13.90
2019,09,30,13,03,13.80
2019,09,30,13,04,13.80
2019,09,30,13,05,13.80
2019,09,30,13,06,13.70
2019,09,30,13,07,13.70
2019,09,30,13,08,13.70
2019,09,30,13,09,13.70
2019,09,30,13,10,13.60
2019,09,30,13,11,13.60
2019,09,30,13,12,13.60
2019,09,30,13,13,13.60
2019,09,30,13,14,13.60
2019,09,30,13,15,13.60
2019,09,30,13,16,13.60
2019,09,30,13,17,13.60
2019,09,30,13,18,13.60
2019,09,30,13,19,13.60
2019,09,30,13,20,13.70
2019,09,30,13,21,13.70
2019,09,30,13,22,13.70
2019,09,30,13,23,13.80
2019,09,30,13,24,13.80
2019,09,30,13,25,13.80
2019,09,30,13,26,13.80
2019,09,30,13,27,13.80
2019,09,30,13,28,13.80
2019,09,30,13,29,13.80
2019,09,30,13,30,13.80
2019,09,30,13,31,13.90
2019,09,30,13,32,14.00
2019,09,30,13,33,14.10
2019,09,30,13,34,14.20
2019,09,30,13,35,14.20
2019,09,30,13,36,14.30
2019,09,30,13,37,14.30
2019,09,30,13,38,14.30
2019,09,30,13,39,14.30
2019,09,30,13,40,14.20
2019,09,30,13,41,14.10
2019,09,30,13,42,14.00
2019,09,30,13,43,13.90
2019,09,30,13,44,13.80
2019,09,30,13,45,13.70
2019,09,30,13,46,13.70
2019,09,30,13,47,13.70
2019,09,30,13,48,13.60
2019,09,30,13,49,13.60
2019,09,30,13,50,13.60
2019,09,30,13,51,13.60
2019,09,30,13,52,13.60
2019,09,30,13,53,13.60
2019,09,30,13,54,13.60
2019,09,30,13,55,13.60
2019,09,30,13,56,13.60
2019,09,30,13,57,13.60
2019,09,30,13,58,13.50
2019,09,30,13,59,13.50
2019,09,30,14,00,13.40
2019,09,30,14,01,13.40
2019,09,30,14,02,13.40
2019,09,30,14,03,13.40
2019,09,30,14,04,13.40
2019,09,30,14,05,13.40
2019,09,30,14,06,13.40
2019,09,30,14,07,13.40
2019,09,30,14,08,13.40
2019,09,30,14,09,13.40
2019,09,30,14,10,13.40
2019,09,30,14,11,13.40
2019,09,30,14,12,13.40
2019,09,30,14,13,13.50
2019,09,30,14,14,13.50
2019,09,30,14,15,13.50
2019,09,30,14,16,13.50
2019,09,30,14,17,13.40
2019,09,30,14,18,13.50
2019,09,30,14,19,13.40
2019,09,30,14,20,13.40
2019,09,30,14,21,13.40
2019,09,30,14,22,13.40
2019,09,30,14,23,13.40
2019,09,30,14,24,13.50
2019,09,30,14,25,13.50
2019,09,30,14,26,13.60
2019,09,30,14,27,13.60
2019,09,30,14,28,13.50
2019,09,30,14,29,13.50
2019,09,30,14,30,13.50
2019,09,30,14,31,13.60
2019,09,30,14,32,13.60
2019,09,30,14,33,13.60
2019,09,30,14,34,13.60
2019,09,30,14,35,13.60
2019,09,30,14,36,13.60
2019,09,30,14,37,13.60
2019,09,30,14,38,13.60
2019,09,30,14,39,13.60
2019,09,30,14,40,13.70
2019,09,30,14,41,13.70
2019,09,30,14,42,13.70
2019,09,30,14,43,13.70
2019,09,30,14,44,13.70
2019,09,30,14,45,13.80
2019,09,30,14,46,13.80
2019,09,30,14,47,13.80
2019,09,30,14,48,13.80
2019,09,30,14,49,13.80
2019,09,30,14,50,13.80
2019,09,30,14,51,13.80
2019,09,30,14,52,13.90
2019,09,30,14,53,13.90
2019,09,30,14,54,14.00
2019,09,30,14,55,14.00
2019,09,30,14,56,14.10
2019,09,30,14,57,14.20
2019,09,30,14,58,14.20
2019,09,30,14,59,14.20
2019,09,30,15,00,14.30
2019,09,30,15,01,14.30
2019,09,30,15,02,14.30
2019,09,30,15,03,14.30
2019,09,30,15,04,14.30
2019,09,30,15,05,14.30
2019,09,30,15,06,14.30
2019,09,30,15,07,14.30
2019,09,30,15,08,14.30
2019,09,30,15,09,14.20
2019,09,30,15,10,14.20
2019,09,30,15,11,14.20
2019,09,30,15,12,14.20
2019,09,30,15,13,14.20
2019,09,30,15,14,14.20
2019,09,30,15,15,14.20
2019,09,30,15,16,14.30
2019,09,30,15,17,14.30
2019,09,30,15,18,14.30
2019,09,30,15,19,14.40
2019,09,30,15,20,14.40
2019,09,30,15,21,14.50
2019,09,30,15,22,14.50
2019,09,30,15,23,14.60
2019,09,30,15,24,14.60
2019,09,30,15,25,14.70
2019,09,30,15,26,14.80
2019,09,30,15,27,14.80
2019,09,30,15,28,14.70
2019,09,30,15,29,14.70
2019,09,30,15,30,14.70
2019,09,30,15,31,14.60
2019,09,30,15,32,14.60
2019,09,30,15,33,14.60
2019,09,30,15,34,14.60
2019,09,30,15,35,14.60
2019,09,30,15,36,14.60
2019,09,30,15,37,14.70
2019,09,30,15,38,14.70
2019,09,30,15,39,14.70
2019,09,30,15,40,14.70
2019,09,30,15,41,14.70
2019,09,30,15,42,14.70
2019,09,30,15,43,14.70
2019,09,30,15,44,14.70
2019,09,30,15,45,14.70
2019,09,30,15,46,14.70
2019,09,30,15,47,14.80
2019,09,30,15,48,14.80
2019,09,30,15,49,14.80
2019,09,30,15,50,14.90
2019,09,30,15,51,14.90
2019,09,30,15,52,14.90
2019,09,30,15,53,14.90
2019,09,30,15,54,14.90
2019,09,30,15,55,15.00
2019,09,30,15,56,15.00
2019,09,30,15,57,15.00
2019,09,30,15,58,15.10
2019,09,30,15,59,15.10
2019,09,30,16,00,15.10
2019,09,30,16,01,15.10
2019,09,30,16,02,15.10
2019,09,30,16,03,15.10
2019,09,30,16,04,15.10
2019,09,30,16,05,15.10
2019,09,30,16,06,15.10
2019,09,30,16,07,15.20
2019,09,30,16,08,15.20
2019,09,30,16,09,15.20
2019,09,30,16,10,15.20
2019,09,30,16,11,15.20
2019,09,30,16,12,15.20
2019,09,30,16,13,15.20
2019,09,30,16,14,15.20
2019,09,30,16,15,15.20
2019,09,30,16,16,15.20
2019,09,30,16,17,15.30
2019,09,30,16,18,15.30
2019,09,30,16,19,15.40
2019,09,30,16,20,15.40
2019,09,30,16,21,15.40
2019,09,30,16,22,15.40
2019,09,30,16,23,15.50
2019,09,30,16,24,15.50
2019,09,30,16,25,15.50
2019,09,30,16,26,15.50
2019,09,30,16,27,15.60
2019,09,30,16,28,15.60
2019,09,30,16,29,15.60
2019,09,30,16,30,15.70
2019,09,30,16,31,15.70
2019,09,30,16,32,15.70
2019,09,30,16,33,15.70
2019,09,30,16,34,15.70
2019,09,30,16,35,15.70
2019,09,30,16,36,15.70
2019,09,30,16,37,15.70
2019,09,30,16,38,15.70
2019,09,30,16,39,15.70
2019,09,30,16,40,15.70
2019,09,30,16,41,15.70
2019,09,30,16,42,15.80
2019,09,30,16,43,15.80
2019,09,30,16,44,15.80
2019,09,30,16,45,15.80
2019,09,30,16,46,15.80
2019,09,30,16,47,15.80
2019,09,30,16,48,15.80
2019,09,30,16,49,15.80
2019,09,30,16,50,15.80
2019,09,30,16,51,15.80
2019,09,30,16,52,15.80
2019,09,30,16,53,15.80
2019,09,30,16,54,15.80
2019,09,30,16,55,15.90
2019,09,30,16,56,15.90
2019,09,30,16,57,15.90
2019,09,30,16,58,15.90
2019,09,30,16,59,15.90
2019,09,30,17,00,16.00
2019,09,30,17,01,16.00
2019,09,30,17,02,16.00
2019,09,30,17,03,16.00
2019,09,30,17,04,16.00
2019,09,30,17,05,16.10
2019,09,30,17,06,16.10
2019,09,30,17,07,16.10
2019,09,30,17,08,16.10
2019,09,30,17,09,16.10
2019,09,30,17,10,16.10
2019,09,30,17,11,16.10
2019,09,30,17,12,16.20
2019,09,30,17,13,16.10
2019,09,30,17,14,16.10
2019,09,30,17,15,16.20
2019,09,30,17,16,16.10
2019,09,30,17,17,16.10
2019,09,30,17,18,16.20
2019,09,30,17,19,16.10
2019,09,30,17,20,16.10
2019,09,30,17,21,16.10
2019,09,30,17,22,16.10
2019,09,30,17,23,16.10
2019,09,30,17,24,16.10
2019,09,30,17,25,16.10
2019,09,30,17,26,16.10
2019,09,30,17,27,16.10
2019,09,30,17,28,16.10
2019,09,30,17,29,16.10
2019,09,30,17,30,16.00
2019,09,30,17,31,16.00
2019,09,30,17,32,16.00
2019,09,30,17,33,16.00
2019,09,30,17,34,16.10
2019,09,30,17,35,16.00
2019,09,30,17,36,16.00
2019,09,30,17,37,16.00
2019,09,30,17,38,16.00
2019,09,30,17,39,16.00
2019,09,30,17,40,16.00
2019,09,30,17,41,16.00
2019,09,30,17,42,16.00
2019,09,30,17,43,16.00
2019,09,30,17,44,16.00
2019,09,30,17,45,16.00
2019,09,30,17,46,16.10